Total_Precipitation_Accumulation
2.12 2.44 2.94 3.66 4.13 4.27 4.34 4.56 4.60 4.70 4.74 4.77 4.76 4.92 5.10 5.15 5.17 5.31 5.34 5.20 5.11 5.28 5.70 5.75 5.62 5.25 4.94 4.81 4.83 4.84 4.59 4.25 4.06 4.09 3.89 3.47 3.12 3.02 2.92 2.95 3.04 3.03 3.13
1.98 2.42 2.91 3.43 3.72 4.08 4.27 4.51 4.55 4.74 5.04 5.49 6.03 6.33 6.43 6.27 6.11 6.02 5.95 5.78 5.66 5.81 5.93 6.09 5.76 5.36 5.17 4.91 4.70 4.71 4.55 4.20 4.13 4.23 4.34 3.85 3.53 2.98 2.58 2.73 2.88 2.97 3.09
1.99 2.34 2.57 2.98 3.30 3.70 4.06 4.29 4.63 5.04 5.59 6.31 7.17 7.56 7.34 6.88 6.63 6.32 6.23 5.96 5.74 5.76 5.96 5.69 5.43 5.25 5.01 4.77 4.63 4.68 4.63 4.26 4.11 4.23 4.53 4.21 3.79 3.34 2.98 2.73 2.69 2.87 3.02
1.99 2.16 2.41 2.73 2.95 3.29 3.76 4.25 4.82 5.43 6.14 6.82 7.34 7.56 7.44 7.18 6.87 6.40 5.98 5.59 5.25 5.10 5.06 4.95 4.73 4.67 4.51 4.40 4.15 4.20 4.32 4.25 3.98 3.94 3.77 3.71 3.63 3.61 3.30 3.01 2.80 2.80 2.93
1.86 1.98 2.17 2.42 2.76 3.21 3.69 4.24 4.79 5.51 6.05 6.63 7.05 7.30 7.28 7.19 6.82 6.09 5.45 5.02 4.63 4.37 4.10 3.94 3.91 3.91 3.87 3.69 3.51 3.54 3.58 3.53 3.52 3.54 3.39 3.40 3.40 3.31 3.18 3.05 2.99 2.99 2.89
1.92 2.01 2.06 2.21 2.74 3.21 3.73 4.13 4.54 5.26 5.90 6.40 6.77 7.07 7.06 6.90 6.29 5.56 4.97 4.55 4.22 3.96 3.71 3.56 3.46 3.43 3.34 3.16 3.03 3.04 3.05 3.07 3.09 3.18 3.19 3.16 3.12 3.07 3.12 2.90 2.81 2.82 2.69
1.82 1.86 2.10 2.28 2.91 3.37 3.64 3.91 4.25 4.69 5.17 5.60 5.92 6.12 6.17 5.94 5.48 5.05 4.60 4.21 3.96 3.67 3.31 2.96 2.80 2.77 2.86 2.88 2.86 2.85 2.78 2.80 2.83 2.78 2.79 2.84 2.76 2.82 2.97 2.97 2.78 2.67 2.55
1.77 1.75 1.99 2.29 2.52 2.82 3.14 3.47 3.74 4.08 4.37 4.55 4.80 4.78 4.76 4.71 4.47 4.13 3.74 3.46 3.16 2.95 2.75 2.51 2.36 2.33 2.46 2.56 2.67 2.59 2.44 2.47 2.60 2.60 2.74 2.71 2.65 2.76 2.79 2.94 3.08 2.99 2.73
1.71 1.83 2.04 2.21 2.28 2.47 2.73 2.93 3.09 3.39 3.57 3.59 3.62 3.57 3.47 3.48 3.45 3.33 3.02 2.71 2.48 2.31 2.23 2.17 2.16 1.99 2.04 2.22 2.34 2.31 2.27 2.35 2.39 2.42 2.54 2.55 2.53 2.63 2.60 2.78 3.07 3.31 3.15
1.79 1.89 2.00 2.28 2.32 2.28 2.47 2.62 2.64 2.73 2.89 2.98 2.86 2.69 2.77 2.84 2.82 2.77 2.51 2.28 2.10 1.93 1.83 1.83 1.80 1.70 1.72 1.89 2.05 2.07 2.18 2.29 2.23 2.22 2.28 2.28 2.27 2.50 2.58 2.62 2.82 3.12 3.26
1.92 2.02 2.01 2.13 2.18 2.11 2.17 2.32 2.39 2.42 2.43 2.50 2.50 2.40 2.33 2.28 2.28 2.32 2.21 2.06 1.92 1.79 1.74 1.66 1.68 1.71 1.67 1.73 1.86 1.87 1.98 2.09 2.10 2.05 2.02 2.02 2.16 2.30 2.33 2.45 2.59 2.86 3.18
2.07 2.11 2.12 2.03 2.04 2.17 2.30 2.25 2.26 2.24 2.25 2.22 2.25 2.30 2.13 2.04 2.00 1.97 1.92 1.80 1.75 1.70 1.66 1.61 1.61 1.61 1.59 1.63 1.65 1.65 1.73 1.87 1.88 1.88 1.92 1.78 1.85 2.05 2.17 2.32 2.41 2.61 2.87
2.23 2.32 2.20 2.00 1.95 2.02 2.09 1.99 1.92 1.91 1.79 1.77 1.90 2.00 1.84 1.70 1.71 1.69 1.65 1.66 1.59 1.55 1.48 1.44 1.40 1.37 1.45 1.52 1.58 1.59 1.62 1.62 1.66 1.78 1.79 1.74 1.87 1.95 2.12 2.24 2.31 2.49 2.57
2.21 2.30 2.29 2.10 2.04 1.93 1.89 1.81 1.71 1.68 1.68 1.66 1.67 1.67 1.65 1.59 1.57 1.55 1.53 1.50 1.44 1.39 1.30 1.23 1.22 1.25 1.27 1.28 1.32 1.38 1.46 1.53 1.56 1.63 1.64 1.64 1.72 1.86 2.10 2.18 2.34 2.54 2.68
2.23 2.35 2.27 2.13 2.10 2.05 2.01 1.80 1.66 1.62 1.62 1.65 1.67 1.61 1.54 1.47 1.49 1.51 1.47 1.40 1.38 1.28 1.25 1.22 1.19 1.20 1.21 1.14 1.17 1.30 1.38 1.53 1.59 1.58 1.55 1.52 1.54 1.69 1.85 1.91 2.20 2.51 2.69
2.25 2.22 2.16 2.13 2.10 2.08 2.04 1.82 1.63 1.54 1.61 1.69 1.68 1.63 1.55 1.46 1.46 1.51 1.50 1.47 1.48 1.46 1.37 1.35 1.30 1.23 1.07 1.13 1.18 1.22 1.38 1.51 1.55 1.64 1.60 1.42 1.37 1.41 1.47 1.54 1.68 2.03 2.33
2.49 2.41 2.33 2.34 2.35 2.23 2.05 1.94 1.73 1.58 1.57 1.59 1.59 1.64 1.60 1.48 1.40 1.39 1.52 1.52 1.56 1.50 1.45 1.40 1.34 1.28 1.20 1.19 1.10 1.11 1.24 1.46 1.57 1.64 1.68 1.48 1.32 1.43 1.43 1.42 1.39 1.52 1.80
2.45 2.39 2.35 2.39 2.38 2.24 2.13 2.01 1.76 1.60 1.54 1.50 1.44 1.51 1.51 1.49 1.42 1.44 1.51 1.54 1.59 1.58 1.45 1.34 1.33 1.39 1.20 1.14 1.06 1.10 1.20 1.41 1.52 1.52 1.54 1.62 1.59 1.39 1.40 1.51 1.58 1.67 1.78
2.29 2.30 2.33 2.36 2.32 2.22 2.12 1.99 1.79 1.61 1.50 1.43 1.39 1.35 1.31 1.32 1.34 1.35 1.45 1.60 1.64 1.57 1.39 1.29 1.31 1.30 1.11 1.01 0.96 0.98 1.11 1.32 1.40 1.33 1.28 1.33 1.36 1.29 1.32 1.54 1.85 1.98 2.12
2.09 2.10 2.14 2.20 2.22 2.18 2.12 2.07 1.94 1.71 1.51 1.36 1.24 1.26 1.30 1.29 1.27 1.34 1.45 1.47 1.52 1.49 1.35 1.25 1.24 1.18 1.05 0.96 0.86 0.86 0.92 1.09 1.18 1.25 1.23 1.25 1.21 1.20 1.28 1.53 1.96 2.19 2.23
2.00 1.87 1.79 1.82 1.90 1.90 1.92 1.93 1.85 1.62 1.37 1.24 1.18 1.23 1.23 1.24 1.23 1.35 1.39 1.41 1.38 1.42 1.41 1.34 1.23 1.13 1.00 0.85 0.79 0.77 0.77 0.88 1.04 1.11 1.18 1.21 1.18 1.12 1.22 1.46 1.78 2.04 2.12
1.87 1.77 1.68 1.55 1.51 1.55 1.67 1.75 1.64 1.40 1.21 1.17 1.15 1.15 1.13 1.05 1.04 1.29 1.41 1.41 1.47 1.39 1.31 1.34 1.26 1.09 0.96 0.78 0.64 0.62 0.65 0.77 1.01 1.13 1.13 1.17 1.18 1.15 1.26 1.37 1.67 1.97 2.14
1.69 1.68 1.58 1.43 1.30 1.37 1.44 1.42 1.37 1.30 1.14 1.13 1.21 1.14 1.06 1.14 1.10 1.13 1.19 1.24 1.34 1.27 1.16 1.14 1.11 0.98 0.85 0.71 0.59 0.53 0.55 0.66 0.81 0.99 1.11 1.10 1.07 1.22 1.49 1.64 1.81 2.03 2.21
1.59 1.52 1.50 1.42 1.29 1.25 1.22 1.16 1.03 1.07 1.16 1.16 1.23 1.21 1.13 1.17 1.15 1.11 1.05 0.97 0.99 1.03 1.08 1.06 1.01 0.94 0.86 0.68 0.54 0.53 0.56 0.62 0.70 0.83 1.03 1.18 1.25 1.40 1.70 1.94 2.06 2.13 2.11
1.41 1.36 1.47 1.42 1.30 1.17 1.13 1.03 0.93 0.96 1.19 1.24 1.20 1.17 1.08 1.03 1.05 0.99 0.94 0.86 0.83 0.88 0.92 0.92 0.92 0.89 0.77 0.62 0.58 0.54 0.55 0.62 0.70 0.83 1.03 1.20 1.30 1.51 1.75 1.89 1.93 1.93 1.89
1.24 1.23 1.33 1.31 1.23 1.15 1.12 1.04 0.93 0.90 1.02 1.11 1.09 1.03 1.00 0.91 0.84 0.83 0.78 0.73 0.67 0.68 0.69 0.69 0.67 0.67 0.65 0.64 0.59 0.55 0.60 0.70 0.81 0.90 1.13 1.32 1.42 1.59 1.71 1.83 1.80 1.73 1.71